Location: Peebles
(55.6412°N, 3.1714°W)
Time: 20:13:08
(UTC+01:00)

deb Kosmos-2123 - Pass Details

Date: 10 July 2022
Orbit: 942 x 985 km, 82.9° (Epoch: 17 August)

Event Time Altitude Azimuth Distance (km) Brightness Sun altitude
Exits shadow 01:31:41 15° 198° (SSW) 2,401 ? -12.0°
Maximum altitude 01:37:03 75° 283° (WNW) 1,016 ? -12.0°
Drops below altitude 10° 01:43:19 10° 10° (N) 2,728 ? -11.9°
Sets 01:45:51 0° 12° (NNE) 3,673 ? -11.9°
